Estación de Campanacura
Ultimos registro cada 15 minutos 37
| N° | Estación | Fecha / Hora | Temperatura | Humedad | Lluvia | Velocidad | Dirección | Radiación | Presion |
| 37 | Campanacura | 04-05-2026 09:00 | 12,3 | 17,7 | 0 | 0 | 121 | 94,4 | 1002,7 |
| 36 | Campanacura | 04-05-2026 08:45 | 12,2 | 17,7 | 0 | 0 | 126 | 73,1 | 1002,5 |
| 35 | Campanacura | 04-05-2026 08:30 | 12 | 18,1 | 0 | 0 | 128 | 44,4 | 1002,7 |
| 34 | Campanacura | 04-05-2026 08:15 | 11,7 | 18,2 | 0 | 0 | 128 | 38,1 | 1002,7 |
| 33 | Campanacura | 04-05-2026 08:00 | 11,4 | 18,5 | 0 | 0 | 128 | 15,6 | 1002,4 |
| 32 | Campanacura | 04-05-2026 07:45 | 11,2 | 18,6 | 0 | 0 | 128 | 8,1 | 1002,3 |
| 31 | Campanacura | 04-05-2026 07:30 | 11,4 | 18,3 | 0 | 0 | 128 | 0,6 | 1002,1 |
| 30 | Campanacura | 04-05-2026 07:15 | 11,5 | 18,2 | 0 | 0 | 128 | 0,6 | 1002,3 |
| 29 | Campanacura | 04-05-2026 07:00 | 11,5 | 18,2 | 0 | 0 | 128 | 0,6 | 1002,5 |
| 28 | Campanacura | 04-05-2026 06:45 | 11,5 | 18,1 | 0 | 0 | 128 | 0,6 | 1002,5 |
| 27 | Campanacura | 04-05-2026 06:30 | 11,5 | 18,2 | 0 | 0 | 128 | 0,6 | 1002,4 |
| 26 | Campanacura | 04-05-2026 06:15 | 11,5 | 18,2 | 0 | 0 | 128 | 0,6 | 1002,1 |
| 25 | Campanacura | 04-05-2026 06:00 | 11,5 | 18,1 | 0 | 0 | 128 | 0,6 | 1002,2 |
| 24 | Campanacura | 04-05-2026 05:45 | 11,5 | 18,1 | 0 | 0 | 128 | 0,6 | 1001,9 |
| 23 | Campanacura | 04-05-2026 05:30 | 11,5 | 18,1 | 0 | 0 | 128 | 0,6 | 1002 |
| 22 | Campanacura | 04-05-2026 05:15 | 11,5 | 18,1 | 0 | 0 | 128 | 0,6 | 1001,8 |
| 21 | Campanacura | 04-05-2026 05:00 | 11,5 | 18,2 | 0 | 0 | 128 | 0,6 | 1001,8 |
| 20 | Campanacura | 04-05-2026 04:45 | 11,5 | 18,2 | 0 | 0 | 128 | 0,6 | 1001,6 |
| 19 | Campanacura | 04-05-2026 04:30 | 11,5 | 18,2 | 0 | 0 | 128 | 0,6 | 1001,8 |
| 18 | Campanacura | 04-05-2026 04:15 | 11,4 | 18,2 | 0 | 0 | 128 | 0,6 | 1001,4 |
| 17 | Campanacura | 04-05-2026 04:00 | 11,5 | 18,2 | 0 | 0 | 128 | 0,6 | 1001,6 |
| 16 | Campanacura | 04-05-2026 03:45 | 11,4 | 18,2 | 0 | 0 | 128 | 0,6 | 1002,2 |
| 15 | Campanacura | 04-05-2026 03:30 | 11,4 | 18,2 | 0 | 0 | 128 | 0,6 | 1002,2 |
| 14 | Campanacura | 04-05-2026 03:15 | 11,4 | 18,2 | 0 | 0 | 128 | 0,6 | 1002,2 |
| 13 | Campanacura | 04-05-2026 03:00 | 11,4 | 18,2 | 0 | 0 | 128 | 0,6 | 1002,3 |
| 12 | Campanacura | 04-05-2026 02:45 | 11,3 | 18,2 | 0 | 0 | 128 | 0,6 | 1002,2 |
| 11 | Campanacura | 04-05-2026 02:30 | 11,3 | 18,2 | 0 | 0 | 128 | 0,6 | 1002,4 |
| 10 | Campanacura | 04-05-2026 02:15 | 11,2 | 18,3 | 0 | 0 | 128 | 0,6 | 1002,5 |
| 9 | Campanacura | 04-05-2026 02:00 | 11,2 | 18,3 | 0 | 0 | 128 | 0,6 | 1002,8 |
| 8 | Campanacura | 04-05-2026 01:45 | 11,2 | 18,5 | 0 | 0 | 122 | 0,6 | 1003 |
| 7 | Campanacura | 04-05-2026 01:30 | 11 | 18,6 | 0 | 0 | 110 | 0,6 | 1003,3 |
| 6 | Campanacura | 04-05-2026 01:15 | 11,2 | 18,2 | 0 | 0 | 110 | 0,6 | 1003,3 |
| 5 | Campanacura | 04-05-2026 01:00 | 11,5 | 18 | 0 | 0 | 110 | 0,6 | 1003,5 |
| 4 | Campanacura | 04-05-2026 00:45 | 11,6 | 17,9 | 0 | 0 | 110 | 0,6 | 1003,6 |
| 3 | Campanacura | 04-05-2026 00:30 | 11,6 | 17,9 | 0 | 0 | 104 | 0,6 | 1003,6 |
| 2 | Campanacura | 04-05-2026 00:15 | 11,8 | 17,9 | 0 | 0 | 101 | 0,6 | 1003,4 |
| 1 | Campanacura | 04-05-2026 00:00 | 11,7 | 17,9 | 0 | 0 | 101 | 0,6 | 1003,5 |